CTN6J LDDU-LDZA

Flight info

Callsign CTN6J
Flight time 0h 47m
Altitude 36000
Route AMUGO DCT SIRMI DCT RUDIK
Aircraft A319/M-SDE2FGIJ1RWY/LB1

Departure

Time 2026-05-05 14:24
Airport Dubrovnik Ruđer Bošković Airport (LDDU)

Arrival

Time 2026-05-05 15:11
Airport Zagreb Franjo Tuđman International Airport (LDZA)
Time Latitude Longitude Altitude Speed Heading
2026-05-05 13:38 42.56048 18.26400 534 ft 0 kts 208°
2026-05-05 14:15 42.56052 18.26403 534 ft 3 kts 208°
2026-05-05 14:15 42.56074 18.26419 534 ft 1 kts 208°
2026-05-05 14:16 42.56092 18.26436 534 ft 4 kts 247°
2026-05-05 14:16 42.56092 18.26466 534 ft 3 kts 298°
2026-05-05 14:16 42.56084 18.26485 534 ft 0 kts 298°
2026-05-05 14:18 42.56087 18.26478 534 ft 1 kts 298°
2026-05-05 14:19 42.56094 18.26459 534 ft 3 kts 298°
2026-05-05 14:19 42.56107 18.26427 534 ft 5 kts 298°
2026-05-05 14:19 42.56124 18.26383 534 ft 6 kts 298°
2026-05-05 14:19 42.56147 18.26326 534 ft 7 kts 298°
2026-05-05 14:20 42.56174 18.26260 534 ft 9 kts 298°
2026-05-05 14:20 42.56204 18.26183 534 ft 10 kts 298°
2026-05-05 14:20 42.56237 18.26098 534 ft 11 kts 298°
2026-05-05 14:20 42.56273 18.26006 534 ft 12 kts 298°
2026-05-05 14:21 42.56313 18.25906 534 ft 13 kts 298°
2026-05-05 14:21 42.56356 18.25797 534 ft 13 kts 298°
2026-05-05 14:21 42.56402 18.25681 534 ft 14 kts 298°
2026-05-05 14:21 42.56452 18.25557 534 ft 15 kts 298°
2026-05-05 14:22 42.56505 18.25425 534 ft 16 kts 298°
2026-05-05 14:22 42.56561 18.25285 534 ft 17 kts 298°
2026-05-05 14:22 42.56620 18.25137 534 ft 18 kts 298°
2026-05-05 14:22 42.56682 18.24981 534 ft 19 kts 298°
2026-05-05 14:23 42.56747 18.24819 534 ft 20 kts 298°
2026-05-05 14:23 42.56825 18.24679 534 ft 19 kts 338°
2026-05-05 14:23 42.56929 18.24755 533 ft 19 kts 72°
2026-05-05 14:23 42.56875 18.24964 533 ft 44 kts 118°
2026-05-05 14:24 42.56593 18.25672 536 ft 123 kts 118°
2026-05-05 14:24 42.56110 18.26893 838 ft 155 kts 120°
2026-05-05 14:24 42.55608 18.28162 1775 ft 151 kts 121°
2026-05-05 14:24 42.55111 18.29418 2639 ft 151 kts 120°
2026-05-05 14:25 42.54617 18.30668 3430 ft 150 kts 122°
2026-05-05 14:25 42.54116 18.31928 4021 ft 162 kts 123°
2026-05-05 14:25 42.53438 18.33289 4476 ft 182 kts 145°
2026-05-05 14:25 42.52217 18.33779 4841 ft 201 kts 189°
2026-05-05 14:26 42.50990 18.32822 5518 ft 215 kts 226°
2026-05-05 14:26 42.50194 18.31002 6133 ft 242 kts 252°
2026-05-05 14:26 42.50141 18.28602 6743 ft 267 kts 272°
2026-05-05 14:26 42.50307 18.26058 7678 ft 274 kts 272°
2026-05-05 14:27 42.50486 18.23471 8694 ft 278 kts 273°
2026-05-05 14:27 42.50798 18.20849 9670 ft 288 kts 286°
2026-05-05 14:27 42.51834 18.18476 10529 ft 305 kts 309°
2026-05-05 14:27 42.53496 18.16485 10958 ft 330 kts 319°
2026-05-05 14:28 42.55322 18.14516 11708 ft 340 kts 320°
2026-05-05 14:28 42.57202 18.12538 12599 ft 344 kts 320°
2026-05-05 14:28 42.59104 18.10538 13509 ft 348 kts 320°
2026-05-05 14:28 42.61025 18.08501 14350 ft 352 kts 319°
2026-05-05 14:29 42.62954 18.06436 15154 ft 355 kts 319°
2026-05-05 14:29 42.64896 18.04343 15970 ft 357 kts 319°
2026-05-05 14:29 42.66845 18.02230 16779 ft 360 kts 318°
2026-05-05 14:29 42.68811 18.00092 17594 ft 362 kts 318°
2026-05-05 14:30 42.70763 17.97964 18401 ft 364 kts 318°
2026-05-05 14:30 42.72755 17.95796 19107 ft 367 kts 318°
2026-05-05 14:30 42.74743 17.93635 19804 ft 370 kts 319°
2026-05-05 14:30 42.76766 17.91419 20505 ft 373 kts 318°
2026-05-05 14:31 42.78776 17.89169 21182 ft 376 kts 317°
2026-05-05 14:31 42.80796 17.86877 21860 ft 379 kts 317°
2026-05-05 14:31 42.82824 17.84560 22550 ft 382 kts 317°
2026-05-05 14:31 42.84868 17.82222 23218 ft 385 kts 317°
2026-05-05 14:32 42.86930 17.79871 23832 ft 388 kts 317°
2026-05-05 14:32 42.89011 17.77505 24353 ft 391 kts 317°
2026-05-05 14:32 42.91094 17.75141 24861 ft 394 kts 317°
2026-05-05 14:32 42.93222 17.72728 25354 ft 398 kts 318°
2026-05-05 14:33 42.95358 17.70302 25830 ft 401 kts 317°
2026-05-05 14:33 42.97496 17.67871 26312 ft 404 kts 318°
2026-05-05 14:33 42.99684 17.65381 26811 ft 407 kts 317°
2026-05-05 14:33 43.01841 17.62921 27282 ft 410 kts 318°
2026-05-05 14:34 43.04050 17.60393 27757 ft 412 kts 318°
2026-05-05 14:34 43.06259 17.57865 28254 ft 415 kts 318°
2026-05-05 14:34 43.08478 17.55325 28703 ft 419 kts 318°
2026-05-05 14:34 43.10716 17.52762 29151 ft 422 kts 318°
2026-05-05 14:35 43.12971 17.50178 29603 ft 425 kts 318°
2026-05-05 14:35 43.15234 17.47583 30047 ft 428 kts 318°
2026-05-05 14:35 43.17542 17.44931 30443 ft 430 kts 317°
2026-05-05 14:35 43.19843 17.42280 30831 ft 432 kts 317°
2026-05-05 14:36 43.22146 17.39624 31232 ft 433 kts 317°
2026-05-05 14:36 43.24435 17.36982 31662 ft 433 kts 317°
2026-05-05 14:36 43.26741 17.34320 32071 ft 433 kts 317°
2026-05-05 14:36 43.29044 17.31660 32624 ft 430 kts 316°
2026-05-05 14:37 43.31314 17.29039 33085 ft 430 kts 316°
2026-05-05 14:37 43.33617 17.26377 33603 ft 428 kts 316°
2026-05-05 14:37 43.35876 17.23760 34167 ft 425 kts 316°
2026-05-05 14:37 43.38134 17.21141 34676 ft 422 kts 316°
2026-05-05 14:38 43.40367 17.18549 35174 ft 420 kts 316°
2026-05-05 14:38 43.42578 17.15978 35640 ft 417 kts 316°
2026-05-05 14:38 43.44813 17.13377 35989 ft 416 kts 316°
2026-05-05 14:38 43.47005 17.10824 36067 ft 412 kts 316°
2026-05-05 14:39 43.51329 17.05774 36077 ft 406 kts 316°
2026-05-05 14:39 43.54896 17.01606 36078 ft 404 kts 316°
2026-05-05 14:40 43.59179 16.96591 36078 ft 403 kts 316°
2026-05-05 14:40 43.63480 16.91556 36080 ft 403 kts 316°
2026-05-05 14:41 43.67724 16.86567 36080 ft 403 kts 316°
2026-05-05 14:41 43.71990 16.81546 36081 ft 403 kts 316°
2026-05-05 14:42 43.76273 16.76487 36096 ft 404 kts 316°
2026-05-05 14:42 43.80522 16.71471 36096 ft 404 kts 316°
2026-05-05 14:43 43.84810 16.66400 36094 ft 404 kts 316°
2026-05-05 14:43 43.89090 16.61322 36090 ft 404 kts 316°
2026-05-05 14:44 43.93369 16.56303 36081 ft 406 kts 320°
2026-05-05 14:44 43.95874 16.54433 36080 ft 414 kts 336°
2026-05-05 14:44 43.98725 16.53580 36089 ft 421 kts 347°
2026-05-05 14:45 44.04505 16.52468 36070 ft 423 kts 347°
2026-05-05 14:45 44.10331 16.51367 36060 ft 423 kts 347°
2026-05-05 14:46 44.16197 16.50236 36066 ft 424 kts 347°
2026-05-05 14:46 44.22010 16.49013 35383 ft 423 kts 346°
2026-05-05 14:47 44.24916 16.48319 34630 ft 425 kts 345°
2026-05-05 14:47 44.27836 16.47602 33869 ft 426 kts 346°
2026-05-05 14:47 44.30763 16.46882 32977 ft 429 kts 346°
2026-05-05 14:47 44.33688 16.46171 32029 ft 433 kts 346°
2026-05-05 14:48 44.36693 16.45450 31047 ft 439 kts 346°
2026-05-05 14:48 44.39709 16.44738 30351 ft 439 kts 347°
2026-05-05 14:48 44.42718 16.44037 29567 ft 438 kts 347°
2026-05-05 14:48 44.45729 16.43340 28864 ft 436 kts 347°
2026-05-05 14:49 44.48682 16.42656 28215 ft 432 kts 346°
2026-05-05 14:49 44.51654 16.41959 27570 ft 428 kts 347°
2026-05-05 14:49 44.54583 16.41268 26974 ft 423 kts 346°
2026-05-05 14:49 44.57451 16.40589 26376 ft 420 kts 346°
2026-05-05 14:50 44.60330 16.39904 25791 ft 416 kts 348°
2026-05-05 14:50 44.63132 16.39237 25230 ft 413 kts 347°
2026-05-05 14:50 44.65978 16.38559 24700 ft 409 kts 347°
2026-05-05 14:50 44.68755 16.37899 24167 ft 406 kts 347°
2026-05-05 14:51 44.71552 16.37234 23658 ft 403 kts 347°
2026-05-05 14:51 44.74287 16.36581 23127 ft 400 kts 347°
2026-05-05 14:51 44.77021 16.35927 22601 ft 397 kts 346°
2026-05-05 14:51 44.79731 16.35279 22116 ft 394 kts 347°
2026-05-05 14:52 44.82407 16.34637 21630 ft 391 kts 348°
2026-05-05 14:52 44.85090 16.33993 21134 ft 388 kts 348°
2026-05-05 14:52 44.87744 16.33355 20646 ft 385 kts 347°
2026-05-05 14:52 44.90364 16.32728 20153 ft 382 kts 348°
2026-05-05 14:53 44.92960 16.32107 19654 ft 379 kts 347°
2026-05-05 14:53 44.95570 16.31481 19157 ft 376 kts 348°
2026-05-05 14:53 44.98143 16.30880 18666 ft 374 kts 350°
2026-05-05 14:53 45.00714 16.30696 18165 ft 374 kts 359°
2026-05-05 14:54 45.03308 16.31028 17607 ft 374 kts
2026-05-05 14:54 45.05887 16.31416 17098 ft 371 kts
2026-05-05 14:54 45.08450 16.31793 16614 ft 368 kts
2026-05-05 14:54 45.10999 16.32164 16110 ft 366 kts
2026-05-05 14:55 45.13499 16.32527 15632 ft 363 kts
2026-05-05 14:55 45.16005 16.32894 15162 ft 360 kts
2026-05-05 14:55 45.18488 16.33258 14692 ft 357 kts
2026-05-05 14:55 45.20950 16.33619 14220 ft 355 kts
2026-05-05 14:56 45.23378 16.33982 13733 ft 353 kts
2026-05-05 14:56 45.25814 16.34348 13247 ft 350 kts
2026-05-05 14:56 45.28232 16.34708 12723 ft 347 kts
2026-05-05 14:56 45.30629 16.35065 12211 ft 345 kts
2026-05-05 14:57 45.33015 16.35417 11724 ft 343 kts
2026-05-05 14:57 45.35379 16.35768 11238 ft 340 kts
2026-05-05 14:57 45.37728 16.36119 10734 ft 339 kts
2026-05-05 14:57 45.40064 16.36465 10268 ft 336 kts
2026-05-05 14:58 45.42345 16.36803 10142 ft 322 kts
2026-05-05 14:58 45.44532 16.37132 10017 ft 310 kts
2026-05-05 14:58 45.46654 16.37449 9740 ft 304 kts
2026-05-05 14:58 45.48759 16.37760 9353 ft 302 kts
2026-05-05 14:59 45.50841 16.38070 8951 ft 301 kts
2026-05-05 14:59 45.52905 16.38380 8541 ft 299 kts
2026-05-05 14:59 45.54973 16.38688 8122 ft 298 kts
2026-05-05 14:59 45.57035 16.38995 7697 ft 297 kts
2026-05-05 15:00 45.59094 16.39302 7276 ft 296 kts
2026-05-05 15:00 45.60453 16.39506 7003 ft 295 kts
2026-05-05 15:00 45.63131 16.39908 6681 ft 285 kts
2026-05-05 15:00 45.65066 16.40201 6560 ft 274 kts
2026-05-05 15:01 45.66925 16.40482 6440 ft 264 kts
2026-05-05 15:01 45.68719 16.40753 6313 ft 254 kts
2026-05-05 15:01 45.70450 16.41017 6190 ft 245 kts
2026-05-05 15:01 45.72125 16.41271 5964 ft 240 kts
2026-05-05 15:02 45.73784 16.41519 5671 ft 239 kts
2026-05-05 15:02 45.75442 16.41767 5368 ft 239 kts
2026-05-05 15:02 45.77094 16.42016 5053 ft 239 kts
2026-05-05 15:02 45.78747 16.42267 4745 ft 239 kts
2026-05-05 15:03 45.80388 16.42217 4428 ft 234 kts 346°
2026-05-05 15:03 45.81926 16.41619 4257 ft 226 kts 330°
2026-05-05 15:03 45.83295 16.40568 4131 ft 221 kts 317°
2026-05-05 15:03 45.84450 16.39174 4004 ft 216 kts 309°
2026-05-05 15:04 45.85535 16.37738 3872 ft 208 kts 309°
2026-05-05 15:04 45.86584 16.36357 3769 ft 200 kts 308°
2026-05-05 15:04 45.87580 16.35051 3695 ft 193 kts 309°
2026-05-05 15:04 45.88557 16.33734 3603 ft 190 kts 304°
2026-05-05 15:05 45.89181 16.30423 3495 ft 170 kts 253°
2026-05-05 15:05 45.88698 16.28895 3499 ft 168 kts 231°
2026-05-05 15:05 45.87901 16.27662 3505 ft 168 kts 225°
2026-05-05 15:06 45.87109 16.26457 3535 ft 163 kts 226°
2026-05-05 15:06 45.86343 16.25285 3505 ft 158 kts 226°
2026-05-05 15:06 45.85605 16.24153 3490 ft 152 kts 226°
2026-05-05 15:06 45.84890 16.23061 3325 ft 150 kts 226°
2026-05-05 15:07 45.84181 16.21979 3106 ft 148 kts 225°
2026-05-05 15:07 45.83471 16.20893 2893 ft 150 kts 226°
2026-05-05 15:07 45.82755 16.19800 2693 ft 151 kts 225°
2026-05-05 15:07 45.82033 16.18695 2464 ft 151 kts 226°
2026-05-05 15:08 45.81333 16.17623 2249 ft 143 kts 226°
2026-05-05 15:08 45.80680 16.16622 2056 ft 130 kts 224°
2026-05-05 15:08 45.80083 16.15711 1876 ft 123 kts 223°
2026-05-05 15:08 45.79511 16.14848 1684 ft 119 kts 225°
2026-05-05 15:09 45.78948 16.13989 1516 ft 121 kts 226°
2026-05-05 15:09 45.78373 16.13105 1362 ft 121 kts 226°
2026-05-05 15:09 45.77796 16.12217 1144 ft 122 kts 226°
2026-05-05 15:09 45.77215 16.11338 956 ft 122 kts 226°
2026-05-05 15:10 45.76639 16.10463 832 ft 120 kts 228°
2026-05-05 15:10 45.76067 16.09580 645 ft 121 kts 227°
2026-05-05 15:10 45.75487 16.08701 505 ft 122 kts 228°
2026-05-05 15:10 45.74909 16.07817 370 ft 116 kts 229°
2026-05-05 15:11 45.74454 16.07121 358 ft 72 kts 226°
2026-05-05 15:11 45.74156 16.06668 360 ft 56 kts 227°
2026-05-05 15:11 45.73947 16.06352 361 ft 30 kts 226°
2026-05-05 15:11 45.73858 16.06250 361 ft 9 kts 167°
2026-05-05 15:12 45.73802 16.06313 363 ft 12 kts 137°
2026-05-05 15:12 45.73744 16.06409 362 ft 14 kts 103°
2026-05-05 15:12 45.73796 16.06518 359 ft 14 kts 46°
2026-05-05 15:12 45.73865 16.06622 359 ft 15 kts 46°
2026-05-05 15:13 45.73942 16.06737 364 ft 17 kts 47°
2026-05-05 15:13 45.74023 16.06861 359 ft 18 kts 46°
2026-05-05 15:13 45.74111 16.06995 359 ft 19 kts 47°
2026-05-05 15:13 45.74198 16.07127 359 ft 13 kts 46°
2026-05-05 15:14 45.74205 16.07218 363 ft 10 kts 123°
2026-05-05 15:14 45.74152 16.07293 363 ft 10 kts 136°
2026-05-05 15:14 45.74104 16.07357 359 ft 9 kts 137°
2026-05-05 15:14 45.74067 16.07413 359 ft 7 kts 122°
2026-05-05 15:15 45.74068 16.07473 360 ft 6 kts 65°
2026-05-05 15:15 45.74064 16.07525 359 ft 7 kts 139°
2026-05-05 15:15 45.74025 16.07576 359 ft 7 kts 136°
2026-05-05 15:15 45.74007 16.07600 359 ft 0 kts 136°